Weather History for KCBK - May, 2014

Change the Weather History Date:

Sunday, May 11, 2014

  Actual Average (KGLD) Record (KGLD)
Temperature  
Mean Temperature 53 °F 58 °F  
Max Temperature 62 °F 71 °F 99 °F (1962)
Min Temperature 44 °F 44 °F 26 °F (1918)
Degree Days  
Heating Degree Days 12 8  
Month to date heating degree days 105  
Since 1 July heating degree days 5760  
Cooling Degree Days 0 1  
Month to date cooling degree days 9  
Year to date cooling degree days 13  
Growing Degree Days 3 (Base 50)    
Moisture  
Dew Point 46 °F    
Average Humidity 80    
Maximum Humidity 100    
Minimum Humidity 37    
Precipitation  
Precipitation 0.00 in 0.09 in 0.62 in (1930)
Month to date precipitation 0.86  
Year to date precipitation 4.39  
Snow  
Snow 0.00 in 0.10 in - ()
Month to date snowfall 0.4  
Since 1 July snowfall 35.4  
Snow Depth -    
Sea Level Pressure  
Sea Level Pressure 29.70 in    
Wind  
Wind Speed 22 mph (NNE)    
Max Wind Speed 30 mph    
Max Gust Speed 40 mph    
Visibility 9 miles    
Events      
T = Trace of Precipitation, MM = Missing Value Source: NWS Daily Summary

Daily Weather History Graph

Daily Weather History Graph

Search for Another Location

Airport or City:

Trip Planner

Search our weather history database for the weather conditions in past years. The results will help you decide how hot, cold, wet, or windy it might be!

Date:

Astronomy

May. 11, 2014 Rise Set
Actual Time 6:34 AM CDT 8:47 PM CDT
Civil Twilight 6:04 AM CDT 9:17 PM CDT
Nautical Twilight 5:27 AM CDT 9:54 PM CDT
Astronomical Twilight 4:47 AM CDT 10:34 PM CDT
Moon 5:46 PM CDT (5/11) 4:39 AM CDT (5/11)
Length of Visible Light 15h 13m
Length of Day
14h 13m
Waxing Gibbous, 89% of the Moon is Illuminated
May 11
Waxing Gibbous
May 14
Full
May 21
Last Quarter
May 28
New
Jun 5
First Quarter

Hourly Weather History & Observations

Time (CDT) Temp. Windchill Dew Point Humidity Pressure Visibility Wind Dir Wind Speed Gust Speed Precip Events Conditions
12:10 AM 62.6 °F - 35.6 °F 37% 29.75 in 10.0 mi NE 19.6 mph - N/A   Clear
12:30 AM 60.8 °F - 35.6 °F 39% 29.74 in 10.0 mi NE 19.6 mph 25.3 mph N/A   Clear
12:50 AM 60.8 °F - 35.6 °F 39% 29.74 in 10.0 mi NE 19.6 mph - N/A   Clear
1:10 AM 62.6 °F - 35.6 °F 37% 29.74 in 10.0 mi NNE 18.4 mph - N/A   Clear
1:30 AM 62.6 °F - 35.6 °F 37% 29.74 in 10.0 mi NNE 19.6 mph 26.5 mph N/A   Scattered Clouds
1:50 AM 60.8 °F - 35.6 °F 39% 29.72 in 10.0 mi North 19.6 mph 24.2 mph N/A   Mostly Cloudy
2:10 AM 59.0 °F - 35.6 °F 42% 29.70 in 10.0 mi North 19.6 mph 25.3 mph N/A   Mostly Cloudy
2:30 AM 59.0 °F - 37.4 °F 45% 29.68 in 10.0 mi NNE 23.0 mph 28.8 mph N/A   Overcast
2:50 AM 59.0 °F - 37.4 °F 45% 29.65 in 10.0 mi NE 24.2 mph 28.8 mph N/A   Overcast
3:10 AM 59.0 °F - 37.4 °F 45% 29.64 in 10.0 mi NE 21.9 mph - N/A   Overcast
3:30 AM 59.0 °F - 37.4 °F 45% 29.63 in 10.0 mi NE 23.0 mph 31.1 mph N/A   Overcast
3:50 AM 59.0 °F - 39.2 °F 48% 29.63 in 10.0 mi NE 23.0 mph 26.5 mph N/A   Mostly Cloudy
4:10 AM 57.2 °F - 41.0 °F 55% 29.62 in 10.0 mi NE 26.5 mph 33.4 mph N/A   Overcast
4:30 AM 55.4 °F - 42.8 °F 63% 29.64 in 10.0 mi NE 24.2 mph 29.9 mph N/A   Overcast
4:50 AM 55.4 °F - 42.8 °F 63% 29.63 in 10.0 mi NNE 21.9 mph 29.9 mph N/A   Overcast
5:10 AM 55.4 °F - 44.6 °F 67% 29.61 in 10.0 mi NE 20.7 mph 27.6 mph N/A   Overcast
5:30 AM 55.4 °F - 44.6 °F 67% 29.61 in 10.0 mi NE 25.3 mph 29.9 mph N/A   Overcast
5:50 AM 53.6 °F - 44.6 °F 72% 29.59 in 10.0 mi NE 25.3 mph 32.2 mph N/A   Overcast
6:10 AM 53.6 °F - 44.6 °F 72% 29.59 in 10.0 mi NE 23.0 mph - N/A   Overcast
6:50 AM 53.6 °F - 46.4 °F 77% 29.60 in 10.0 mi NE 21.9 mph - N/A   Overcast
7:30 AM 53.6 °F - 48.2 °F 82% 29.61 in 10.0 mi NE 21.9 mph 25.3 mph N/A   Overcast
7:50 AM 53.6 °F - 50.0 °F 88% 29.62 in 10.0 mi NE 21.9 mph 31.1 mph N/A   Overcast
8:10 AM 53.6 °F - 51.8 °F 94% 29.62 in 10.0 mi NE 21.9 mph 26.5 mph N/A   Overcast
8:30 AM 53.6 °F - 51.8 °F 94% 29.63 in 10.0 mi NE 20.7 mph 28.8 mph N/A   Overcast
8:50 AM 53.6 °F - 51.8 °F 94% 29.63 in 10.0 mi NE 21.9 mph 28.8 mph N/A   Overcast
9:10 AM 55.4 °F - 53.6 °F 94% 29.63 in 10.0 mi NE 21.9 mph 29.9 mph N/A   Overcast
9:30 AM 53.6 °F - 51.8 °F 94% 29.64 in 10.0 mi NNE 23.0 mph 27.6 mph N/A   Overcast
9:50 AM 53.6 °F - 51.8 °F 94% 29.64 in 10.0 mi NNE 20.7 mph 26.5 mph N/A   Overcast
10:10 AM 53.6 °F - 51.8 °F 94% 29.64 in 10.0 mi NNE 21.9 mph - N/A   Overcast
10:30 AM 55.4 °F - 51.8 °F 88% 29.64 in 10.0 mi NNE 19.6 mph - N/A   Overcast
10:50 AM 55.4 °F - 51.8 °F 88% 29.65 in 10.0 mi NE 20.7 mph 24.2 mph N/A   Overcast
11:10 AM 55.4 °F - 51.8 °F 88% 29.66 in 10.0 mi NNE 19.6 mph - N/A   Overcast
11:30 AM 53.6 °F - 53.6 °F 100% 29.67 in 10.0 mi NNE 18.4 mph - N/A   Overcast
11:50 AM 53.6 °F - 51.8 °F 94% 29.67 in 10.0 mi NNE 20.7 mph 24.2 mph N/A   Overcast
12:10 PM 53.6 °F - 53.6 °F 100% 29.68 in 10.0 mi North 20.7 mph 24.2 mph N/A   Overcast
12:30 PM 53.6 °F - 51.8 °F 94% 29.68 in 10.0 mi North 19.6 mph 23.0 mph N/A   Overcast
12:50 PM 53.6 °F - 51.8 °F 94% 29.69 in 10.0 mi North 19.6 mph 25.3 mph N/A   Overcast
1:10 PM 55.4 °F - 51.8 °F 88% 29.68 in 10.0 mi NNE 23.0 mph 28.8 mph N/A   Overcast
1:30 PM 55.4 °F - 51.8 °F 88% 29.68 in 10.0 mi North 24.2 mph 29.9 mph N/A   Overcast
1:50 PM 57.2 °F - 51.8 °F 82% 29.68 in 10.0 mi North 21.9 mph 27.6 mph N/A   Overcast
2:10 PM 59.0 °F - 51.8 °F 77% 29.67 in 10.0 mi North 25.3 mph - N/A   Overcast
2:30 PM 57.2 °F - 51.8 °F 82% 29.67 in 10.0 mi NNE 23.0 mph 27.6 mph N/A   Overcast
2:50 PM 57.2 °F - 50.0 °F 77% 29.67 in 10.0 mi North 26.5 mph - N/A   Overcast
3:10 PM 55.4 °F - 50.0 °F 82% 29.67 in 10.0 mi North 20.7 mph 29.9 mph N/A   Overcast
3:30 PM 53.6 °F - 50.0 °F 88% 29.69 in 10.0 mi North 21.9 mph 29.9 mph N/A   Overcast
3:50 PM 51.8 °F - 48.2 °F 88% 29.70 in 10.0 mi NNW 19.6 mph 27.6 mph N/A   Overcast
4:10 PM 50.0 °F - 48.2 °F 94% 29.71 in 10.0 mi NNW 23.0 mph 28.8 mph N/A   Overcast
4:30 PM 50.0 °F - 48.2 °F 94% 29.71 in 4.0 mi NNW 19.6 mph 31.1 mph N/A   Overcast
5:10 PM 46.4 °F 37.2 °F 46.4 °F 100% 29.70 in 2.0 mi NNW 29.9 mph 38.0 mph N/A   Overcast
5:30 PM 46.4 °F 38.1 °F 46.4 °F 100% 29.71 in 5.0 mi NNW 24.2 mph 36.8 mph N/A   Overcast
5:50 PM 46.4 °F 37.7 °F 46.4 °F 100% 29.74 in 4.0 mi NNW 26.5 mph 36.8 mph N/A   Overcast
6:10 PM 46.4 °F 37.9 °F 46.4 °F 100% 29.74 in 3.0 mi NNW 25.3 mph 34.5 mph N/A   Overcast
6:30 PM 46.4 °F 37.4 °F 44.6 °F 93% 29.75 in 5.0 mi NNW 28.8 mph 35.7 mph N/A   Overcast
6:50 PM 46.4 °F 37.4 °F 44.6 °F 93% 29.74 in 10.0 mi NNW 28.8 mph 38.0 mph N/A   Overcast
7:10 PM 44.6 °F 35.5 °F 44.6 °F 100% 29.76 in 7.0 mi NNW 25.3 mph 40.3 mph N/A   Overcast
7:50 PM 44.6 °F 35.7 °F 44.6 °F 100% 29.80 in 10.0 mi North 24.2 mph 33.4 mph N/A   Overcast
8:10 PM 44.6 °F 35.5 °F 44.6 °F 100% 29.80 in 3.0 mi North 25.3 mph 33.4 mph N/A   Overcast
8:30 PM 44.6 °F 35.5 °F 44.6 °F 100% 29.81 in 5.0 mi North 25.3 mph 33.4 mph N/A   Overcast
8:50 PM 44.6 °F 35.7 °F 44.6 °F 100% 29.80 in 10.0 mi NNW 24.2 mph 33.4 mph N/A   Overcast
9:10 PM 44.6 °F 35.3 °F 42.8 °F 93% 29.79 in 10.0 mi North 26.5 mph 36.8 mph N/A   Overcast
9:30 PM 44.6 °F 34.7 °F 42.8 °F 93% 29.79 in 10.0 mi North 29.9 mph 35.7 mph N/A   Overcast
9:50 PM 44.6 °F 34.9 °F 42.8 °F 93% 29.82 in 10.0 mi North 28.8 mph 36.8 mph N/A   Overcast
10:10 PM 44.6 °F 34.9 °F 42.8 °F 93% 29.82 in 10.0 mi North 28.8 mph 39.1 mph N/A   Overcast
10:30 PM 44.6 °F 35.5 °F 42.8 °F 93% 29.84 in 10.0 mi North 25.3 mph 32.2 mph N/A   Overcast
10:50 PM 44.6 °F 35.9 °F 42.8 °F 93% 29.86 in 10.0 mi North 23.0 mph 32.2 mph N/A   Overcast
11:10 PM 44.6 °F 35.7 °F 42.8 °F 93% 29.86 in 10.0 mi North 24.2 mph 29.9 mph N/A   Overcast
11:30 PM 44.6 °F 35.9 °F 42.8 °F 93% 29.88 in 10.0 mi North 23.0 mph 31.1 mph N/A   Overcast
11:50 PM 44.6 °F 35.7 °F 42.8 °F 93% 29.88 in 10.0 mi North 24.2 mph 29.9 mph N/A   Overcast